• In Latvia
  • List of Countries
  • For 7 days
  • Water Temperature
  • Satellite Maps
  • Weather Map
  • Weather Widgets
  • user-avatar
    Login

    Hourly Weather Tuzla

    Today, 24 October, Tuesday

    Time Temperature Precipitation Wind Pressure Humidity
    00:00 +6°C° 1.2 mm 5 mps 716 mmHg 93%
    01:00 +6°C° 1.2 mm 5 mps 716 mmHg 94%
    02:00 +6°C° 1.4 mm 5 mps 717 mmHg 94%
    03:00 +6°C° 1.4 mm 5 mps 717 mmHg 94%
    04:00 +5°C° 1.4 mm 5 mps 717 mmHg 94%
    05:00 +5°C° 1.7 mm 5 mps 717 mmHg 94%
    06:00 +5°C° 1.7 mm 5 mps 717 mmHg 94%
    07:00 +5°C° 1.7 mm 5 mps 717 mmHg 94%
    08:00 +5°C° 2 mm 5 mps 718 mmHg 94%
    09:00 +5°C° 2 mm 5 mps 718 mmHg 93%
    10:00 +6°C° 2 mm 5 mps 719 mmHg 93%
    11:00 +6°C° 2.2 mm 5 mps 719 mmHg 92%
    12:00 +6°C° 2.2 mm 5 mps 719 mmHg 92%
    13:00 +6°C° 2.2 mm 5 mps 719 mmHg 91%
    14:00 +6°C° 1.5 mm 5 mps 719 mmHg 91%
    15:00 +7°C° 1.5 mm 5 mps 719 mmHg 90%
    16:00 +7°C° 1.5 mm 5 mps 719 mmHg 90%
    17:00 +7°C° 1.4 mm 4 mps 720 mmHg 90%
    18:00 +7°C° 1.4 mm 4 mps 720 mmHg 91%
    19:00 +7°C° 1.4 mm 4 mps 721 mmHg 91%
    20:00 +6°C° 1.3 mm 4 mps 722 mmHg 91%
    21:00 +6°C° 1.3 mm 4 mps 722 mmHg 92%
    22:00 +6°C° 1.3 mm 4 mps 723 mmHg 92%
    23:00 +7°C° 0.6 mm 3 mps 723 mmHg 92%

    Tomorrow, 25 October, Wednesday

    Time Temperature Precipitation Wind Pressure Humidity
    00:00 +7°C° 0.6 mm 3 mps 724 mmHg 93%
    01:00 +7°C° 0.6 mm 3 mps 724 mmHg 93%
    02:00 +5°C° 0.1 mm 3 mps 725 mmHg 93%
    03:00 +6°C° 0.1 mm 2 mps 725 mmHg 93%
    04:00 +6°C° 0.1 mm 2 mps 725 mmHg 94%
    05:00 +6°C° 0 mm 2 mps 726 mmHg 93%
    06:00 +6°C° 0 mm 2 mps 726 mmHg 93%
    07:00 +6°C° 0 mm 2 mps 727 mmHg 93%
    08:00 +7°C° 0 mm 2 mps 727 mmHg 90%
    09:00 +8°C° 0 mm 2 mps 727 mmHg 88%
    10:00 +8°C° 0 mm 2 mps 728 mmHg 86%
    11:00 +9°C° 0 mm 2 mps 728 mmHg 82%
    12:00 +10°C° 0 mm 2 mps 728 mmHg 79%
    13:00 +12°C° 0 mm 2 mps 728 mmHg 76%
    14:00 +12°C° 0 mm 1 mps 728 mmHg 78%
    15:00 +12°C° 0 mm 1 mps 728 mmHg 79%
    16:00 +11°C° 0 mm 1 mps 728 mmHg 81%
    17:00 +10°C° 0 mm 1 mps 728 mmHg 84%
    18:00 +9°C° 0 mm 1 mps 729 mmHg 87%
    19:00 +8°C° 0 mm 1 mps 729 mmHg 90%
    20:00 +8°C° 0 mm 1 mps 729 mmHg 90%
    21:00 +8°C° 0 mm 1 mps 729 mmHg 91%
    22:00 +7°C° 0 mm 1 mps 730 mmHg 91%
    23:00 +7°C° 0 mm 1 mps 730 mmHg 91%

    Day after tomorrow, 26 October, Thursday

    Time Temperature Precipitation Wind Pressure Humidity
    00:00 +7°C° 0 mm 1 mps 730 mmHg 91%
    01:00 +7°C° 0 mm 1 mps 730 mmHg 91%
    02:00 +7°C° 0 mm 1 mps 730 mmHg 91%
    03:00 +7°C° 0 mm 1 mps 729 mmHg 91%
    04:00 +7°C° 0 mm 1 mps 729 mmHg 90%
    05:00 +7°C° 0 mm 1 mps 730 mmHg 89%
    06:00 +7°C° 0 mm 1 mps 730 mmHg 88%
    07:00 +7°C° 0 mm 1 mps 730 mmHg 87%
    08:00 +10°C° 0 mm 1 mps 730 mmHg 78%
    09:00 +12°C° 0 mm 0 mps 730 mmHg 70%
    10:00 +14°C° 0 mm 0 mps 730 mmHg 61%
    11:00 +15°C° 0 mm 0 mps 730 mmHg 57%
    12:00 +18°C° 0 mm 1 mps 730 mmHg 52%
    13:00 +20°C° 0 mm 1 mps 729 mmHg 48%
    14:00 +18°C° 0 mm 1 mps 729 mmHg 54%
    15:00 +16°C° 0 mm 1 mps 729 mmHg 60%
    16:00 +14°C° 0 mm 0 mps 728 mmHg 66%
    17:00 +14°C° 0 mm 1 mps 728 mmHg 69%
    18:00 +12°C° 0 mm 1 mps 728 mmHg 73%
    19:00 +11°C° 0 mm 1 mps 728 mmHg 77%
    20:00 +11°C° 0 mm 1 mps 728 mmHg 76%
    21:00 +11°C° 0 mm 1 mps 728 mmHg 76%
    22:00 +11°C° 0 mm 1 mps 728 mmHg 76%
    23:00 +10°C° 0 mm 1 mps 728 mmHg 75%

    27 October, Friday

    Time Temperature Precipitation Wind Pressure Humidity
    00:00 +10°C° 0 mm 1 mps 727 mmHg 73%
    01:00 +10°C° 0 mm 1 mps 727 mmHg 72%
    02:00 +10°C° 0 mm 1 mps 726 mmHg 71%
    03:00 +10°C° 0 mm 1 mps 726 mmHg 69%
    04:00 +10°C° 0 mm 1 mps 725 mmHg 67%
    05:00 +10°C° 0 mm 1 mps 725 mmHg 66%
    06:00 +10°C° 0 mm 1 mps 725 mmHg 65%
    07:00 +10°C° 0 mm 1 mps 725 mmHg 63%
    08:00 +13°C° 0 mm 1 mps 724 mmHg 58%
    09:00 +16°C° 0 mm 1 mps 724 mmHg 52%
    10:00 +19°C° 0 mm 1 mps 724 mmHg 46%
    11:00 +21°C° 0 mm 1 mps 724 mmHg 43%
    12:00 +22°C° 0 mm 1 mps 723 mmHg 41%
    13:00 +23°C° 0 mm 1 mps 722 mmHg 38%
    14:00 +22°C° 0 mm 1 mps 721 mmHg 45%
    15:00 +20°C° 0 mm 1 mps 721 mmHg 51%
    16:00 +19°C° 0 mm 1 mps 720 mmHg 58%
    17:00 +16°C° 0 mm 1 mps 720 mmHg 62%
    18:00 +15°C° 0 mm 1 mps 720 mmHg 66%
    19:00 +13°C° 0 mm 1 mps 719 mmHg 70%
    20:00 +13°C° 0 mm 1 mps 719 mmHg 70%
    21:00 +13°C° 0 mm 1 mps 720 mmHg 70%
    22:00 +13°C° 0 mm 1 mps 720 mmHg 70%
    23:00 +12°C° 0 mm 1 mps 720 mmHg 73%

    28 October, Saturday

    Time Temperature Precipitation Wind Pressure Humidity
    00:00 +12°C° 0 mm 1 mps 720 mmHg 76%
    01:00 +10°C° 0 mm 2 mps 720 mmHg 79%
    02:00 +10°C° 0.4 mm 2 mps 720 mmHg 83%
    03:00 +10°C° 0.4 mm 2 mps 721 mmHg 87%
    04:00 +9°C° 0.4 mm 2 mps 721 mmHg 90%
    05:00 +9°C° 0.2 mm 2 mps 721 mmHg 89%
    06:00 +10°C° 0.2 mm 1 mps 721 mmHg 87%
    07:00 +9°C° 0.2 mm 1 mps 721 mmHg 86%
    08:00 +10°C° 0 mm 1 mps 721 mmHg 79%
    09:00 +10°C° 0 mm 2 mps 721 mmHg 72%
    10:00 +10°C° 0 mm 2 mps 721 mmHg 65%
    11:00 +12°C° 0 mm 2 mps 720 mmHg 60%
    12:00 +13°C° 0 mm 1 mps 720 mmHg 56%
    13:00 +13°C° 0 mm 1 mps 719 mmHg 51%
    14:00 +13°C° 0 mm 1 mps 719 mmHg 55%
    15:00 +12°C° 0 mm 1 mps 718 mmHg 58%
    16:00 +11°C° 0 mm 1 mps 717 mmHg 62%
    17:00 +10°C° 0 mm 1 mps 717 mmHg 64%
    18:00 +9°C° 0 mm 1 mps 716 mmHg 67%
    19:00 +9°C° 0 mm 1 mps 716 mmHg 70%
    20:00 +9°C° 0 mm 1 mps 715 mmHg 70%
    21:00 +8°C° 0 mm 2 mps 714 mmHg 70%
    22:00 +8°C° 0 mm 2 mps 714 mmHg 70%
    23:00 +8°C° 0 mm 2 mps 713 mmHg 69%

    29 October, Sunday

    Time Temperature Precipitation Wind Pressure Humidity
    00:00 +8°C° 0 mm 2 mps 712 mmHg 68%
    01:00 +8°C° 0 mm 2 mps 711 mmHg 67%
    02:00 +8°C° 0.1 mm 2 mps 710 mmHg 69%
    03:00 +8°C° 0.1 mm 2 mps 709 mmHg 71%
    04:00 +9°C° 0.1 mm 2 mps 708 mmHg 73%
    05:00 +9°C° 0.7 mm 2 mps 708 mmHg 77%
    06:00 +9°C° 0.7 mm 2 mps 707 mmHg 81%
    07:00 +9°C° 0.7 mm 3 mps 707 mmHg 85%
    08:00 +9°C° 1.9 mm 3 mps 707 mmHg 85%
    09:00 +8°C° 1.9 mm 4 mps 707 mmHg 85%
    10:00 +9°C° 1.9 mm 5 mps 707 mmHg 85%
    11:00 +7°C° 4 mm 5 mps 707 mmHg 86%
    12:00 +6°C° 4 mm 4 mps 707 mmHg 88%
    13:00 +4°C° 4 mm 3 mps 707 mmHg 89%
    14:00 +4°C° 1.4 mm 3 mps 708 mmHg 89%
    15:00 +5°C° 1.4 mm 2 mps 708 mmHg 90%
    16:00 +5°C° 1.4 mm 2 mps 708 mmHg 90%
    17:00 +4°C° 1.4 mm 2 mps 708 mmHg 91%
    18:00 +4°C° 1.4 mm 2 mps 708 mmHg 92%
    19:00 +4°C° 1.4 mm 2 mps 708 mmHg 92%
    20:00 +4°C° 1.1 mm 2 mps 709 mmHg 92%
    21:00 +4°C° 1.1 mm 2 mps 709 mmHg 93%
    22:00 +4°C° 1.1 mm 1 mps 709 mmHg 93%
    23:00 +3°C° 0.8 mm 2 mps 710 mmHg 93%

    30 October, Monday

    Time Temperature Precipitation Wind Pressure Humidity
    00:00 +3°C° 0.8 mm 2 mps 710 mmHg 93%
    01:00 +2°C° 0.8 mm 3 mps 710 mmHg 93%
    02:00 +2°C° 0.4 mm 3 mps 710 mmHg 93%
    03:00 +2°C° 0.4 mm 3 mps 710 mmHg 93%
    04:00 +2°C° 0.4 mm 3 mps 710 mmHg 93%
    05:00 +2°C° 0.4 mm 3 mps 710 mmHg 93%
    06:00 +2°C° 0.4 mm 3 mps 711 mmHg 94%
    07:00 +3°C° 0.4 mm 3 mps 711 mmHg 94%
    08:00 +3°C° 0.8 mm 3 mps 712 mmHg 93%
    09:00 +3°C° 0.8 mm 4 mps 712 mmHg 93%
    10:00 +4°C° 0.8 mm 4 mps 713 mmHg 93%
    11:00 +4°C° 1.4 mm 4 mps 713 mmHg 92%
    12:00 +4°C° 1.4 mm 4 mps 713 mmHg 92%
    13:00 +4°C° 1.4 mm 4 mps 714 mmHg 91%
    14:00 +4°C° 1.5 mm 4 mps 714 mmHg 91%
    15:00 +4°C° 1.5 mm 4 mps 715 mmHg 91%
    16:00 +3°C° 1.5 mm 3 mps 715 mmHg 91%
    17:00 +3°C° 0.9 mm 3 mps 716 mmHg 91%
    18:00 +3°C° 0.9 mm 3 mps 717 mmHg 91%
    19:00 +3°C° 0.9 mm 3 mps 717 mmHg 91%
    20:00 +3°C° 0.2 mm 3 mps 718 mmHg 91%
    21:00 +3°C° 0.2 mm 3 mps 719 mmHg 91%
    22:00 +3°C° 0.2 mm 3 mps 719 mmHg 91%
    23:00 +4°C° 0.2 mm 2 mps 720 mmHg 91%
    Show more